Location: Gleizolles
(44.4833°N, 6.7667°E)
Time: 20:36:20
(UTC+00:00)

Tiros 1 despin weight - Pass Details

Date: 26 June 2024
Orbit: 576 x 620 km, 48.2° (Epoch: 19 July)

Event Time Altitude Azimuth Distance (km) Brightness Sun altitude
Rises 11:56:26 0° 264° (W) 2,885 ? 68.4°
Reaches altitude 10° 11:58:46 10° 268° (W) 1,984 ? 68.3°
Maximum altitude 12:03:17 61° 349° (NNW) 708 ? 68.1°
Drops below altitude 10° 12:07:49 10° 70° (ENE) 1,988 ? 67.9°
Sets 12:10:10 0° 74° (ENE) 2,893 ? 67.7°
